Location: Dal�� Lhota
(48.7500°N, 14.0167°E)
Time: 06:12:48
(UTC+00:00)

Transit 2A - Pass Details

Date: 29 July 2021
Orbit: 594 x 964 km, 66.7° (Epoch: 24 September)

Event Time Altitude Azimuth Distance (km) Brightness Sun altitude
Rises 13:54:23 0° 325° (NW) 3,175 9.3 45.4°
Reaches altitude 10° 13:56:41 10° 329° (NNW) 2,304 8.6 45.0°
Maximum altitude 14:01:57 62° 51° (NE) 924 6.8 44.2°
Drops below altitude 10° 14:07:46 10° 132° (SE) 2,538 8.6 43.4°
Sets 14:10:25 0° 135° (SE) 3,522 9.3 43.0°
